Torna al catalogo

SITRO-AIS-40

AttivoNavigazioneSSO
NORAD 61776·PAYLOAD·🇷🇺 Russia
Questo nome del satellite non è ancora stato confermato da fonti ufficiali.

Lanciato Nov 4, 2024 da Vostochny Cosmodrome

Loading…

Prossimi Passaggi (prossime 24 ore)

TLE

AggiornatoSource: Space-Track

Epoca: Sep 14, 2026, 15:02 UTC

1 61776U 24199AT  26257.62648790  .00084708  00000-0  63604-3 0  9995
2 61776  97.2680 137.2922 0001988 348.7202  11.4017 15.72336626151629

Traccia SITRO-AIS-40 in tempo reale con AllMySat

Download on the App Store